Regional Weather Roundup
Issued by NWS

Home | Current Version | Previous Version | Graphics & Text | Print | Product List | Glossary Off
Versions: 1 2 3 4 5 6 7 8 9 10 11 12 13 14 15 16 17 18 19 20 21 22 23 24 25 26 27 28 29 30 31 32 33 34 35 36 37 38 39 40 41 42 43 44 45 46 47 48 49 50

000
ASUS43 KMKX 092121
RWRWI

WISCONSIN REGIONAL WEATHER ROUNDUP
NATIONAL WEATHER SERVICE MILWAUKEE/SULLIVAN WI
300 PM CST TUE FEB 09 2016

NOTE: "FAIR" INDICATES FEW OR NO CLOUDS BELOW 12,000 FEET WITH NO
SIGNIFICANT WEATHER AND/OR OBSTRUCTIONS TO VISIBILITY.

WIZ001-002-006>008-014>016-023>028-092200-
NORTHWEST WISCONSIN

CITY           SKY/WX    TMP DP  RH WIND       PRES   REMARKS
SUPERIOR ARPT  SUNNY     14  -3  46 N9        30.08S WCI   2
ASHLAND        PTSUNNY   12   2  64 NW13      30.02S WCI  -3
HAYWARD        PTSUNNY   11  -1  58 N6G18     30.00R WCI   1
SIREN          SUNNY     16  -4  42 N13       30.05S WCI   2
CUMBERLAND     SUNNY     12  -4  48 NW16      29.99S WCI  -4
RICE LAKE      SUNNY     14  -2  49 NW10G18   30.02R WCI   1
CHETEK         SUNNY     13   0  57 N6        30.00R WCI   4
LADYSMITH      CLOUDY    11   2  67 N16G23    29.98R WCI  -5
EAU CLAIRE     SUNNY     13  -1  54 N8        30.01R WCI   2
MENOMONIE      SUNNY     17  -1  44 NW20G26   30.02S WCI   0
NEW RICHMOND   SUNNY     15   0  51 NW16      30.04S WCI  -1
OSCEOLA        SUNNY     15   0  51 NW15G22   30.09S WCI   0
$$

WIZ003>005-009-010-017-018-092200-
NORTH CENTRAL WISCONSIN

CITY           SKY/WX    TMP DP  RH WIND       PRES   REMARKS
MANITOWISH WTR LGT SNOW   9   2  74 N13G18    29.88R WCI  -6
ARBOR VITAE    LGT SNOW  11   5  75 N18G28    29.87R VSB 1   WCI  -6
WOODRUFF       LGT SNOW  11   5  75 N18G28    29.87R VSB 1   WCI  -6
RHINELANDER    CLOUDY    12   1  61 N12G23    29.84R WCI  -2
EAGLE RIVER    LGT SNOW  10   1  68 N15G24    29.84R WCI  -7
LAND O LAKES   HAZE      10   3  72 N16G31    29.85R VSB 1   WCI  -7
PHILLIPS       CLOUDY     9  -1  65 N12G21    29.91R WCI  -6
TOMAHAWK       CLOUDY    12   4  70 NW13G21   29.87R HAZE    WCI  -3
MEDFORD        PTSUNNY   11   1  63 N15G22    29.88R WCI  -5
MERRILL        CLOUDY    14   4  63 N14G23    29.87R WCI   0
$$

WIZ029-030-035-036-043>047-092200-
CENTRAL WISCONSIN

CITY           SKY/WX    TMP DP  RH WIND       PRES   REMARKS
WAUSAU         CLOUDY    16   5  62 NW14G23   29.84R WCI   2
MOSINEE        NOT AVBL
MARSHFIELD     CLOUDY    13   3  64 NW17      29.88R WCI  -4
STEVENS POINT  CLOUDY    15   4  61 N16       29.86R WCI  -1
WAUPACA        CLOUDY    21   7  54 NW14G22   29.85R WCI   8
WAUTOMA        CLOUDY    18   6  59 NW14G22   29.87R WCI   4
WISC RAPIDS    CLOUDY    14   3  61 N21G32    29.90R WCI  -4
CAMP DOUGLAS   PTSUNNY   14   3  62 NW16      29.92R WCI  -2
$$

WIZ011>013-019>022-031-037>040-048>050-092200-
NORTHEAST WISCONSIN

CITY           SKY/WX    TMP DP  RH WIND       PRES   REMARKS
ANTIGO         CLOUDY    13   6  74 N21       29.81R HAZE    WCI  -6
SHAWANO        CLOUDY    21   6  53 NW13G20   29.84S WCI   8
OCONTO         CLOUDY    18   5  57 N14G20    29.83R WCI   4
STURGEON BAY   CLOUDY    16   9  73 NW18      29.82R WCI  -1
GREEN BAY      CLOUDY    19   7  59 N14       29.83R WCI   6
MANITOWOC      LGT SNOW  19  11  70 N17       29.82R WCI   4
APPLETON       CLOUDY    18   7  62 NW15G22     N/A  WCI   3
CLINTONVILLE   CLOUDY    19   7  58 N12G21    29.84R WCI   7
OSHKOSH        LGT SNOW  17  10  74 W15       29.83R WCI   2
$$

WIZ032>034-041-042-053>061-092200-
SOUTHWEST WISCONSIN

CITY           SKY/WX    TMP DP  RH WIND       PRES   REMARKS
LA CROSSE      SUNNY     15  -1  49 NW16      30.00S WCI  -1
SPARTA         SUNNY     14   1  57 NW13G20   29.98R WCI   0
VIROQUA        SUNNY     13   1  59 NW17      29.92S WCI  -4
BOSCOBEL       SUNNY     18   2  49 N13       29.97S WCI   5
PRAIRIE DU CHI SUNNY     15  -1  48 NW13G18   29.99S WCI   2
PLATTEVILLE    MOSUNNY   15   6  65 NW13      29.92S WCI   1
$$

WIZ056-057-062-063-064-067-068-092200-
SOUTH CENTRAL WISCONSIN

CITY           SKY/WX    TMP DP  RH WIND       PRES   REMARKS
REEDSBURG      CLOUDY    15   4  61 NW15G21   29.91R WCI  -1
BARABOO/DELLS  CLOUDY    15   3  59 NW13G26   29.89S WCI   1
LONE ROCK      PTSUNNY   14   1  56 NW15G21   29.95R WCI  -1
MINERAL POINT  CLOUDY    16   3  57 NW12G23   29.90R WCI   3
MADISON        LGT SNOW  15   6  67 NW15G22   29.88S WCI   0
MIDDLETON      CLOUDY    17   7  63 NW16G22   29.89S WCI   2
WATERTOWN      CLOUDY    16   7  67 NW13      29.86R WCI   2
MONROE         LGT SNOW  16   9  73 NW12G18   29.88R WCI   3
JANESVILLE     CLOUDY    18   9  68 NW17      29.88R HAZE    WCI   2
$$

WIZ051-052-058>065-066-070>072-092200-
SOUTHEAST WISCONSIN

CITY           SKY/WX    TMP DP  RH WIND       PRES   REMARKS
MILWAUKEE      FLURRIES  18   7  62 NW14G20   29.84R WCI   4
WAUKESHA       CLOUDY    14   7  73 NW16G25   29.84R WCI  -2
MILWAUKEE/TIMM CLOUDY    18   7  62 NW20G25   29.84R WCI   1
RACINE         CLOUDY    17   6  62 NW12      29.85R WCI   4
BURLINGTON     CLOUDY    15   4  63 NW15      29.85R WCI   0
KENOSHA        FLURRIES  17   7  64 NW12      29.84R WCI   4
FOND DU LAC    LGT SNOW  17  10  74 NW14      29.84R WCI   3
SHEBOYGAN      FLURRIES  18   9  68 NW12      29.81R WCI   5
WEST BEND      FLURRIES  18   9  68 NW14G21   29.83R WCI   4
JUNEAU         LGT SNOW  15   8  73 W8G18     29.85S WCI   4
$$

LSZ147-162-092200-
LAKE SUPERIOR

STATION/POSITION TIME  TEMP    WIND        PRES    WAVE
                       AIR SEA DIR/SP/G            HT/PER
                 (UTC) (F)     (DEG/KT/KT) (MB)    (FT/S)
DEVILS ISLAND    2100   11     340/ 19/ 22 1018.7R
SAXON HARBOR     2000   12                 1016.3F
$$

LMZ867-665-643>646-092200-
LAKE MICHIGAN

STATION/POSITION TIME  TEMP    WIND        PRES    WAVE
                       AIR SEA DIR/SP/G            HT/PER
                 (UTC) (F)     (DEG/KT/KT) (MB)    (FT/S)
CHAMBERS ISLAND  2000   19     300/ 19/ 26 1008.5S
ALGOMA LAKESHORE 2011          330/ 18/ 23   N/A
KEWAUNEE LAKESHO 2000   18     330/ 13/ 20 1008.3R
SHEBOYGAN LAKESH 2100   18     320/ 14/ 18 1011.2R
PORT WASHINGTON  2040   18     310/ 10/ 17 1011.2R
MILWAUKEE LAKESH 2010   17     300/ 15/ 23   N/A
KENOSHA   LAKESH 2100   17     310/ 16/ 20 1010.8R
$$

TC  - TEMPERATURE IN CELSIUS
VSB - VISIBILITY IN STATUTE MILES
WCI - WIND CHILL INDEX
HX  - HEAT INDEX




USA.gov is the U.S. government's official web portal to all federal, state and local government web resources and services.